TimeCDT,TemperatureF,Dew PointF,Humidity,Sea Level PressureIn,VisibilityMPH,Wind Direction,Wind SpeedMPH,Gust SpeedMPH,PrecipitationIn,Events,Conditions,WindDirDegrees,DateUTC
12:14 AM,64.4,53.6,68,30.05,10.0,Calm,Calm,-,N/A,,Clear,0,2013-08-22 05:14:00
12:34 AM,64.4,53.6,68,30.07,10.0,Calm,Calm,-,N/A,,Clear,0,2013-08-22 05:34:00
12:54 AM,64.4,53.6,68,30.08,10.0,North,3.5,-,N/A,,Clear,360,2013-08-22 05:54:00
1:14 AM,64.4,53.6,68,30.08,10.0,Calm,Calm,-,N/A,,Clear,0,2013-08-22 06:14:00
1:34 AM,64.4,53.6,68,30.08,10.0,Calm,Calm,-,N/A,,Clear,0,2013-08-22 06:34:00
1:54 AM,62.6,53.6,72,30.08,10.0,Calm,Calm,-,N/A,,Clear,0,2013-08-22 06:54:00
2:14 AM,62.6,53.6,72,30.09,10.0,Calm,Calm,-,N/A,,Clear,0,2013-08-22 07:14:00
2:34 AM,62.6,53.6,72,30.09,10.0,Calm,Calm,-,N/A,,Clear,0,2013-08-22 07:34:00
2:54 AM,62.6,53.6,72,30.09,10.0,Calm,Calm,-,N/A,,Clear,0,2013-08-22 07:54:00
3:14 AM,62.6,51.8,68,30.10,10.0,Calm,Calm,-,N/A,,Clear,0,2013-08-22 08:14:00
3:34 AM,62.6,51.8,68,30.11,10.0,Calm,Calm,-,N/A,,Clear,0,2013-08-22 08:34:00
3:54 AM,60.8,50.0,68,30.11,10.0,North,3.5,-,N/A,,Clear,360,2013-08-22 08:54:00
4:14 AM,60.8,50.0,68,30.13,10.0,Calm,Calm,-,N/A,,Clear,0,2013-08-22 09:14:00
4:34 AM,60.8,50.0,68,30.14,10.0,Calm,Calm,-,N/A,,Clear,0,2013-08-22 09:34:00
4:54 AM,60.8,48.2,63,30.15,10.0,Calm,Calm,-,N/A,,Scattered Clouds,0,2013-08-22 09:54:00
5:14 AM,60.8,46.4,59,30.14,10.0,Calm,Calm,-,N/A,,Scattered Clouds,0,2013-08-22 10:14:00
5:34 AM,60.8,46.4,59,30.14,10.0,Calm,Calm,-,N/A,,Scattered Clouds,0,2013-08-22 10:34:00
5:54 AM,59.0,44.6,59,30.15,10.0,Calm,Calm,-,N/A,,Clear,0,2013-08-22 10:54:00
6:14 AM,59.0,44.6,59,30.16,10.0,Calm,Calm,-,N/A,,Clear,0,2013-08-22 11:14:00
6:34 AM,55.4,44.6,67,30.16,10.0,Calm,Calm,-,N/A,,Clear,0,2013-08-22 11:34:00
6:54 AM,55.4,46.4,72,30.15,10.0,Calm,Calm,-,N/A,,Clear,0,2013-08-22 11:54:00
7:14 AM,55.4,46.4,72,30.15,10.0,Calm,Calm,-,N/A,,Clear,0,2013-08-22 12:14:00
7:34 AM,55.4,46.4,72,30.15,10.0,Calm,Calm,-,N/A,,Clear,0,2013-08-22 12:34:00
7:54 AM,60.8,48.2,63,30.15,10.0,Calm,Calm,-,N/A,,Clear,0,2013-08-22 12:54:00
8:14 AM,62.6,48.2,59,30.15,10.0,Calm,Calm,-,N/A,,Clear,0,2013-08-22 13:14:00
8:34 AM,64.4,50.0,59,30.16,10.0,Calm,Calm,-,N/A,,Clear,0,2013-08-22 13:34:00
8:54 AM,64.4,46.4,52,30.17,10.0,ENE,4.6,-,N/A,,Clear,60,2013-08-22 13:54:00
9:14 AM,68.0,48.2,49,30.17,10.0,ENE,3.5,-,N/A,,Clear,70,2013-08-22 14:14:00
9:34 AM,69.8,50.0,49,30.17,10.0,ENE,4.6,-,N/A,,Clear,70,2013-08-22 14:34:00
9:54 AM,69.8,48.2,46,30.17,10.0,ENE,4.6,-,N/A,,Clear,60,2013-08-22 14:54:00
10:14 AM,73.4,46.4,38,30.17,10.0,ENE,8.1,-,N/A,,Clear,70,2013-08-22 15:14:00
10:34 AM,73.4,44.6,36,30.17,10.0,NE,8.1,-,N/A,,Clear,50,2013-08-22 15:34:00
10:54 AM,73.4,44.6,36,30.17,10.0,ENE,6.9,-,N/A,,Clear,70,2013-08-22 15:54:00
11:14 AM,75.2,44.6,34,30.18,10.0,NE,4.6,-,N/A,,Clear,40,2013-08-22 16:14:00
11:34 AM,75.2,42.8,31,30.18,10.0,East,6.9,-,N/A,,Clear,80,2013-08-22 16:34:00
11:54 AM,75.2,44.6,34,30.18,10.0,East,5.8,-,N/A,,Clear,90,2013-08-22 16:54:00
12:14 PM,77.0,44.6,32,30.17,10.0,North,5.8,-,N/A,,Clear,360,2013-08-22 17:14:00
12:34 PM,78.8,44.6,30,30.16,10.0,ENE,4.6,-,N/A,,Clear,70,2013-08-22 17:34:00
12:54 PM,77.0,42.8,29,30.16,10.0,NE,4.6,-,N/A,,Clear,50,2013-08-22 17:54:00
1:14 PM,77.0,42.8,29,30.16,10.0,NNW,5.8,-,N/A,,Clear,340,2013-08-22 18:14:00
1:34 PM,78.8,41.0,26,30.16,10.0,NNE,5.8,-,N/A,,Clear,20,2013-08-22 18:34:00
1:54 PM,78.8,42.8,28,30.15,10.0,NNE,3.5,-,N/A,,Clear,20,2013-08-22 18:54:00
2:14 PM,78.8,42.8,28,30.15,10.0,North,3.5,-,N/A,,Clear,10,2013-08-22 19:14:00
2:34 PM,78.8,41.0,26,30.15,10.0,Calm,Calm,-,N/A,,Clear,0,2013-08-22 19:34:00
2:54 PM,80.6,41.0,24,30.14,10.0,NNW,3.5,-,N/A,,Clear,340,2013-08-22 19:54:00
3:14 PM,80.6,41.0,24,30.14,10.0,NNE,3.5,-,N/A,,Clear,20,2013-08-22 20:14:00
3:34 PM,78.8,41.0,26,30.14,10.0,NNE,5.8,-,N/A,,Clear,30,2013-08-22 20:34:00
3:54 PM,78.8,41.0,26,30.14,10.0,Calm,Calm,-,N/A,,Clear,0,2013-08-22 20:54:00
4:14 PM,78.8,41.0,26,30.14,10.0,NE,3.5,-,N/A,,Clear,40,2013-08-22 21:14:00
4:34 PM,78.8,41.0,26,30.14,10.0,NNE,4.6,-,N/A,,Clear,20,2013-08-22 21:34:00
4:54 PM,78.8,41.0,26,30.13,10.0,Calm,Calm,-,N/A,,Clear,0,2013-08-22 21:54:00
5:14 PM,78.8,41.0,26,30.13,10.0,Calm,Calm,-,N/A,,Clear,0,2013-08-22 22:14:00
5:34 PM,78.8,42.8,28,30.13,10.0,NNW,11.5,-,N/A,,Clear,330,2013-08-22 22:34:00
5:54 PM,78.8,42.8,28,30.13,10.0,NNW,8.1,-,N/A,,Clear,340,2013-08-22 22:54:00
6:14 PM,78.8,42.8,28,30.13,10.0,NW,9.2,-,N/A,,Clear,320,2013-08-22 23:14:00
6:34 PM,77.0,42.8,29,30.13,10.0,NNW,6.9,-,N/A,,Clear,330,2013-08-22 23:34:00
6:54 PM,75.2,42.8,31,30.13,10.0,NW,6.9,-,N/A,,Clear,320,2013-08-22 23:54:00
7:14 PM,75.2,44.6,34,30.13,10.0,NW,5.8,-,N/A,,Clear,320,2013-08-23 00:14:00
7:34 PM,71.6,46.4,41,30.13,10.0,NNW,3.5,-,N/A,,Clear,330,2013-08-23 00:34:00
7:54 PM,69.8,50.0,49,30.13,10.0,Calm,Calm,-,N/A,,Clear,0,2013-08-23 00:54:00
8:14 PM,68.0,48.2,49,30.14,10.0,Calm,Calm,-,N/A,,Clear,0,2013-08-23 01:14:00
8:34 PM,62.6,51.8,68,30.14,10.0,Calm,Calm,-,N/A,,Clear,0,2013-08-23 01:34:00
8:54 PM,59.0,50.0,72,30.14,10.0,Calm,Calm,-,N/A,,Clear,0,2013-08-23 01:54:00
9:14 PM,59.0,50.0,72,30.15,10.0,Calm,Calm,-,N/A,,Clear,0,2013-08-23 02:14:00
9:35 PM,57.2,50.0,77,30.16,10.0,Calm,Calm,-,N/A,,Clear,0,2013-08-23 02:35:00
9:54 PM,55.4,48.2,77,30.16,10.0,Calm,Calm,-,N/A,,Clear,0,2013-08-23 02:54:00
10:14 PM,53.6,50.0,88,30.16,10.0,Calm,Calm,-,N/A,,Clear,0,2013-08-23 03:14:00
10:35 PM,55.4,50.0,82,30.17,10.0,Calm,Calm,-,N/A,,Clear,0,2013-08-23 03:35:00
10:54 PM,53.6,48.2,82,30.17,10.0,Calm,Calm,-,N/A,,Clear,0,2013-08-23 03:54:00
11:15 PM,51.8,48.2,88,30.17,10.0,Calm,Calm,-,N/A,,Clear,0,2013-08-23 04:15:00
11:34 PM,51.8,50.0,94,30.17,10.0,Calm,Calm,-,N/A,,Clear,0,2013-08-23 04:34:00
11:55 PM,51.8,48.2,88,30.17,10.0,Calm,Calm,-,N/A,,Clear,0,2013-08-23 04:55:00